星链-5125 (STARLINK-5125 )

导读 | 豆包AI

STARLINK-5125是美国太空探索技术公司 SpaceX 星链互联网卫星星座中的一员,于2022年10月05日发射升空。星链计划旨在搭建全球卫星互联网,为全球偏远地区、网络不发达区域提供高速低延迟的互联网接入服务,该卫星为星链星座的组网覆盖能力提供了支撑。

基本信息
目录编号:
53994
目录名称:
STARLINK-5125
国际标识:
2022-125AG
轨道中心:
EARTH
卫星名称:
星链-5125
卫星全名:
星链-5125 (STARLINK-5125 )
卫星状态:
在轨 (已飞行1303 天)
发射日期:
2022-10-05 UTC
国别 :
美国 (US)
星等 :
--
轨道信息
数据来源 国际轨道数据
星历时间: 2026-04-30T08:31:19+0800
14小时前
查看轨道信息
半长轴: 6917.877km
偏心率: 0.0001428
轨道倾角: 53.219°
近地点辐角 89.891°
升交点赤经 343.559°
平近点角 270.225°
近地点: 538.752km
远地点: 540.728km
周期: 95.437分钟
每日圈数: 15.088414
详细信息
固有亮度:
5
最大亮度:
2.5
卫星平台:
Starlink v1.5
覆盖范围:
全球
运营商:
太空探索技术公司
运营商所在国:
美国
制造商(研发单位):
太空探索技术公司
制造商所在国:
美国
使用方式:
暂无
卫星简介
星链(Starlink)计划是由太空探索技术公司(SpaceX)提出的一个巨型低轨卫星互联网星座项目,计划在2019年至2024年间在太空搭建由约1.2万颗卫星组成的“星链”网络,其中1584颗将部署在地球上空550千米处的近地轨道,并从2020年开始工作。该卫星仍在工作。
2D轨道图
3D轨道图
轨道高度分析图
轨道倾角分析图
轨道综合分析图
查看轨道综合分析图